Regional Weather Roundup
Issued by NWS

Home | Current Version | Previous Version | Text Only | Print | Product List | Glossary On
Versions: 1 2 3 4 5 6 7 8 9 10 11 12 13 14 15 16 17 18 19 20 21 22 23 24 25 26 27 28 29 30 31 32 33 34 35 36 37 38 39 40 41 42 43 44 45 46 47 48 49 50
637
ASUS43 KDMX 061403
RWRIA

WEATHER ROUNDUP FOR IOWA
NATIONAL WEATHER SERVICE DES MOINES IA
800 AM CST SAT FEB 06 2016

NOTE: "FAIR" INDICATES FEW OR NO CLOUDS BELOW 12,000 FEET WITH NO
SIGNIFICANT WEATHER AND/OR OBSTRUCTIONS TO VISIBILITY.

* - THESE STATIONS ARE NOT NWS STATIONS...THUS NOT UNDER NWS
QUALITY CONTROL.  THEY ALSO DO NOT REPORT WEATHER SUCH
AS PRECIPITATION OR FOG.

IAZ001>003-012>014-020>022-031>034-043>046-061500-
   NORTHWEST IOWA

CITY           SKY/WX    TMP DP  RH WIND       PRES   REMARKS
CARROLL *      FOG       27  27 100 SW8       30.21F VSB<1/4 WCI  18
CHEROKEE *     FOG       27  27 100 SW5       30.18F VSB 1/4 WCI  21
DENISON *      FOG       28  28 100 SW7       30.20S VSB 1/4 WCI  21
LE MARS *      CLOUDY    18  18 100 S6        30.18F WCI   9
ORANGE CITY *  SNOW      18  18 100 CALM      30.14F VSB<1/4
SHELDON *      FOG       19  19 100 S9        30.12F VSB 1/4 WCI   9
SIOUX CITY     FOG       15  11  83 E7        30.20S VSB 1/4 WCI   5
SPENCER        FOG       27  23  85 SW13      30.15F VSB 1/4 WCI  16
STORM LAKE *   CLOUDY    23  23 100 MISG      30.18S FOG
$$

IAZ055>058-069>071-079>083-090>094-061500-
   SOUTHWEST IOWA

CITY           SKY/WX    TMP DP  RH WIND       PRES   REMARKS
ATLANTIC *     CLOUDY    28  28 100 W6        30.25R FOG     WCI  22
AUDUBON *      FOG       27  25  93 W8        30.23S VSB 1/4 WCI  18
CLARINDA *     CLOUDY    32  32 100 CALM      30.28S
COUNCIL BLFS * FOG       27  27 100 S3        30.24S VSB<1/4
CRESTON *      FOG       28  28 100 CALM      30.24S VSB 3/4
HARLAN  *      FOG       28  28 100 W6        30.27S VSB 1/2 WCI  22
LAMONI         CLEAR     22  20  92 SW5       30.24F WCI  16
RED OAK *      CLOUDY    32  32 100 W8        30.26S WCI  25
SHENANDOAH *   FOG       25  25 100 CALM      30.28R VSB<1/4
$$

IAZ047>049-059>061-072>074-084-061500-
   CENTRAL IOWA

CITY           SKY/WX    TMP DP  RH WIND       PRES   REMARKS
AMES           CLOUDY    29  27  92 NW8       30.23S FOG     WCI  21
ANKENY *       CLOUDY    30  30 100 W5        30.24S FOG     WCI  25
BOONE *        CLOUDY    28  28 100 W9        30.20S FOG     WCI  20
CHARITON *     PTCLDY    25  21  86 CALM      30.23F
DES MOINES     CLOUDY    29  26  89 W6        30.24S FOG     WCI  23
GRINNELL*      CLOUDY    28  27  93 SW3       30.22F
KNOXVILLE *    CLEAR     25  21  86 SW6       30.22F WCI  18
MARSHALLTOWN   CLOUDY    30  28  92 W9        30.21F FOG     WCI  22
NEWTON *       CLOUDY    28  28 100 SW3       30.22F
PELLA *        PTCLDY    26  22  87 SW5       30.25S FOG     WCI  20
$$

IAZ004>006-015-016-023>025-035-036-061500-
   NORTH CENTRAL IOWA

CITY           SKY/WX    TMP DP  RH WIND       PRES   REMARKS
ALGONA *       FOG       27  27 100 SW14      30.16F VSB<1/4 WCI  15
CLARION *      CLOUDY    27  25  93 W10       30.19F FOG     WCI  17
ESTHERVILLE    FOG       24  23  96 SW14      30.14F VSB 1/2 WCI  12
FORT DODGE *   CLOUDY    27  23  86 SW5       30.20F VSB 3/4 WCI  21
MASON CITY     CLOUDY    25  24  96 SW12      30.18F FOG     WCI  14
FOREST CITY *  FOG       25  25 100 SW7       30.17F VSB<1/4 WCI  17
WEBSTER CITY * CLOUDY    27  27 100 W8        30.19S FOG     WCI  18
IOWA FALLS *   CLOUDY    28  27  93 W10       30.21S FOG     WCI  19
$$

IAZ007>011-017>019-026>030-037>042-050>054-066-061500-
   NORTHEAST IOWA

CITY           SKY/WX    TMP DP  RH WIND       PRES   REMARKS
CEDAR RAPIDS   CLOUDY    28  24  85 SW6       30.22F WCI  22
CHARLES CITY * CLOUDY    27  27 100 W9        30.20R FOG     WCI  17
CLINTON *      CLOUDY    29  25  85 CALM      30.26S
DECORAH *      CLOUDY    27  27 100 W7        30.18R FOG     WCI  19
DUBUQUE        CLOUDY    28  25  88 W9        30.21S WCI  19
MONTICELLO *   CLOUDY    30  27  86 W7G14     30.23S WCI  23
OELWEIN *      CLOUDY    28  28 100 W9        30.20S FOG     WCI  20
WATERLOO       CLOUDY    29  27  92 W6        30.21S FOG     WCI  23
$$

IAZ064-065-067-068-078-061500-
   EAST CENTRAL IOWA

CITY           SKY/WX    TMP DP  RH WIND       PRES   REMARKS
DAVENPORT      CLEAR     28  22  78 SW5       30.26S WCI  23
IOWA CITY      MOCLDY    25  21  85 CALM      30.25F
MT. PLEASANT * CLEAR     27  23  85 S5        30.27S WCI  22
MUSCATINE *    CLEAR     25  23  93 S3        30.28S
QUAD CITIES    CLEAR     28  22  78 CALM      30.25F
$$

IAZ062-063-075>077-085>089-095>099-061500-
   SOUTHEAST IOWA

CITY           SKY/WX    TMP DP  RH WIND       PRES   REMARKS
BURLINGTON     CLEAR     26  24  92 S6        30.27S WCI  19
FAIRFIELD *    CLEAR     23  19  86 SW3       30.26F
FORT MADISON * CLEAR     27  23  86 S6        30.28S WCI  20
KEOKUK *       CLEAR     28  21  74 CALM      30.28R
OSKALOOSA *    MOCLDY    23  21  93 S6        30.25F WCI  16
OTTUMWA        CLEAR     23  20  88 S6        30.24F WCI  16
WASHINGTON *   CLEAR     23  23 100 S6        30.27F WCI  16
$$

ABBREVIATIONS USED IN REMARKS
   TC - TEMPERATURES IN CELSIUS
  WCI - WIND CHILL INDEX
   HX - HEAT INDEX
  VSB - VISIBILITY
$$





USA.gov is the U.S. government's official web portal to all federal, state and local government web resources and services.